User: anonymous   Login
Location: Skalnate Pleso
(49.1889°N, 20.2450°E)
Time: 13:22:41
(UTC+01:00)
Language:

Iridium 45 - Orbit

View from above orbital plane
View from above orbital plane
View from above satellite
View from above satellite

Ground track
Ground track

The orbit data is extracted from the following two-line orbital elements,

1 25104U 97082A   17056.36253800  .00000240  00000-0  78558-4 0  9997
2 25104  86.3995 333.9878 0001544  54.5050 305.6290 14.34221613  4341
Epoch (UTC): 25 February 2017 08:42:03
Eccentricity: 0.0001544
inclination: 86.3995°
perigee height: 776 km
apogee height: 779 km
right ascension of ascending node: 333.9878°
argument of perigee: 54.5050°
revolutions per day: 14.34221613
mean anomaly at epoch: 305.6290°
orbit number at epoch: 434

The dashed part of the orbit path shows where the satellite is in the earth's shadow,  

DLR